Location: Bieujac
(44.5398°N, 0.1549°W)
Time: 14:31:18
(UTC+00:00)

NOSS 3-3 (A) - Pass Details

Date: 22 February 2020
Orbit: 836 x 1376 km, 63.4° (Epoch: 06 April)

Event Time Altitude Azimuth Distance (km) Brightness Sun altitude
Rises 05:31:24 0° 212° (SSW) 3,416 6.5 -14.9°
Reaches altitude 10° 05:33:46 10° 212° (SSW) 2,518 5.9 -14.4°
Maximum altitude 05:39:35 83° 125° (SE) 948 4.0 -13.4°
Drops below altitude 10° 05:46:09 10° 39° (NE) 2,831 6.9 -12.2°
Sets 05:48:57 0° 39° (NE) 3,871 7.7 -11.7°
